Location: Haieshausen
(51.8387°N, 9.9720°E)
Time: 04:22:29
(UTC+00:00)

Cosmos 921 Rocket - Pass Details

Date: 14 July 2020
Orbit: 572 x 631 km, 75.8° (Epoch: 10 August)

Event Time Altitude Azimuth Distance (km) Brightness Sun altitude
Rises 02:05:05 0° 333° (NNW) 2,906 6.9 -8.7°
Reaches altitude 10° 02:07:26 10° 327° (NNW) 1,986 5.9 -8.5°
Maximum altitude 02:11:36 42° 256° (WSW) 869 3.5 -8.1°
Drops below altitude 10° 02:15:41 10° 186° (S) 1,936 5.1 -7.7°
Enters shadow 02:17:10 - 181° (S) 2,514 5.7 -7.6°
